| time (UTC) | temp C | wind direction | speed KPH | gust KPH | rain 1hr cm | rain 24hr cm | rain mn cm | humidity % | barometer mb |
| 20260509113133 | 12 | 158 | 6.4 | 11.3 | 0.00 | 0.00 | 0.00 | 74 | 1020.0 |
| 20260509112623 | 12 | 180 | 6.4 | 12.9 | 0.00 | 0.00 | 0.00 | 74 | 1020.3 |
| 20260509112113 | 12 | 180 | 6.4 | 12.9 | 0.00 | 0.00 | 0.00 | 74 | 1020.0 |
| 20260509111603 | 12 | 180 | 4.8 | 12.9 | 0.00 | 0.00 | 0.00 | 74 | 1020.0 |
| 20260509111053 | 12 | 203 | 6.4 | 14.5 | 0.00 | 0.00 | 0.00 | 74 | 1019.9 |
| 20260509110542 | 12 | 180 | 4.8 | 17.7 | 0.00 | 0.00 | 0.00 | 73 | 1020.1 |
| 20260509110032 | 12 | 158 | 9.7 | 17.7 | 0.00 | 0.00 | 0.00 | 72 | 1019.9 |
| 20260509105012 | 12 | 158 | 9.7 | 17.7 | 0.00 | 0.00 | 0.00 | 70 | 1019.6 |
| 20260509104501 | 12 | 180 | 8.0 | 24.1 | 0.00 | 0.00 | 0.00 | 71 | 1019.3 |
| 20260509103951 | 12 | 203 | 12.9 | 24.1 | 0.00 | 0.00 | 0.00 | 70 | 1019.3 |
| 20260509103442 | 12 | 203 | 9.7 | 24.1 | 0.00 | 0.00 | 0.00 | 69 | 1019.1 |
| 20260509102932 | 12 | 180 | 12.9 | 24.1 | 0.00 | 0.00 | 0.00 | 67 | 1019.2 |
| 20260509102421 | 12 | 203 | 8.0 | 22.5 | 0.00 | 0.00 | 0.00 | 67 | 1019.1 |
| 20260509101912 | 12 | 180 | 6.4 | 17.7 | 0.00 | 0.00 | 0.00 | 65 | 1018.7 |
| 20260509101402 | 13 | 225 | 11.3 | 27.4 | 0.00 | 0.00 | 0.00 | 63 | 1018.7 |
| 20260509100341 | 12 | 203 | 11.3 | 17.7 | 0.00 | 0.00 | 0.00 | 67 | 1018.5 |
| 20260509095831 | 12 | 203 | 8.0 | 12.9 | 0.00 | 0.00 | 0.00 | 72 | 1018.0 |
| 20260509095321 | 13 | 225 | 3.2 | 9.7 | 0.00 | 0.00 | 0.00 | 71 | 1017.8 |
| 20260509094811 | 13 | 203 | 4.8 | 9.7 | 0.00 | 0.00 | 0.00 | 72 | 1017.7 |
| 20260509094301 | 13 | 180 | 3.2 | 9.7 | 0.00 | 0.00 | 0.00 | 71 | 1017.6 |
| 20260509093241 | 13 | 203 | 4.8 | 11.3 | 0.00 | 0.00 | 0.00 | 72 | 1017.0 |
| 20260509092731 | 13 | 203 | 3.2 | 9.7 | 0.00 | 0.00 | 0.00 | 71 | 1017.2 |
| 20260509092220 | 13 | 203 | 4.8 | 9.7 | 0.00 | 0.00 | 0.00 | 71 | 1016.7 |
| 20260509091200 | 13 | 180 | 6.4 | 11.3 | 0.00 | 0.00 | 0.00 | 70 | 1016.6 |
| 20260509090140 | 13 | 203 | 4.8 | 14.5 | 0.00 | 0.00 | 0.00 | 69 | 1016.3 |
| 20260509085630 | 13 | 203 | 8.0 | 14.5 | 0.00 | 0.00 | 0.00 | 68 | 1016.3 |
| 20260509085120 | 13 | 203 | 4.8 | 12.9 | 0.00 | 0.00 | 0.00 | 67 | 1016.2 |
| 20260509084610 | 13 | 203 | 6.4 | 12.9 | 0.00 | 0.00 | 0.00 | 66 | 1016.2 |
| 20260509083549 | 13 | 180 | 11.3 | 17.7 | 0.00 | 0.00 | 0.00 | 63 | 1016.0 |
| 20260509083039 | 13 | 158 | 4.8 | 20.9 | 0.00 | 0.00 | 0.00 | 62 | 1015.7 |
| 20260509082528 | 13 | 225 | 9.7 | 25.7 | 0.00 | 0.00 | 0.00 | 60 | 1015.7 |
| 20260509082019 | 13 | 203 | 9.7 | 25.7 | 0.00 | 0.00 | 0.00 | 58 | 1015.6 |
| 20260509081509 | 13 | 180 | 9.7 | 17.7 | 0.00 | 0.00 | 0.00 | 58 | 1015.5 |
| 20260509080958 | 13 | 180 | 12.9 | 22.5 | 0.00 | 0.00 | 0.00 | 57 | 1015.6 |
| 20260509080448 | 13 | 203 | 9.7 | 22.5 | 0.00 | 0.00 | 0.00 | 56 | 1015.5 |
| 20260509075428 | 13 | 158 | 9.7 | 17.7 | 0.00 | 0.00 | 0.00 | 57 | 1015.4 |
| 20260509074918 | 13 | 203 | 8.0 | 20.9 | 0.00 | 0.00 | 0.00 | 60 | 1015.4 |
| 20260509074408 | 13 | 225 | 6.4 | 20.9 | 0.00 | 0.00 | 0.00 | 61 | 1015.2 |
| 20260509073858 | 13 | 180 | 6.4 | 12.9 | 0.00 | 0.00 | 0.00 | 62 | 1015.3 |
| 20260509073348 | 13 | 203 | 6.4 | 11.3 | 0.00 | 0.00 | 0.00 | 62 | 1015.1 |
| 20260509072837 | 13 | 180 | 4.8 | 11.3 | 0.00 | 0.00 | 0.00 | 63 | 1015.3 |
| 20260509072327 | 12 | 180 | 6.4 | 11.3 | 0.00 | 0.00 | 0.00 | 64 | 1015.1 |
| 20260509071817 | 12 | 203 | 6.4 | 9.7 | 0.00 | 0.00 | 0.00 | 66 | 1015.0 |
| 20260509070757 | 12 | 225 | 3.2 | 6.4 | 0.00 | 0.00 | 0.00 | 70 | 1015.0 |
| 20260509070247 | 12 | 225 | 3.2 | 6.4 | 0.00 | 0.00 | 0.00 | 70 | 1015.0 |
| 20260509065737 | 12 | 225 | 4.8 | 6.4 | 0.00 | 0.00 | 0.00 | 71 | 1014.8 |
| 20260509065227 | 12 | 225 | 3.2 | 6.4 | 0.00 | 0.00 | 0.00 | 73 | 1015.0 |
| 20260509064717 | 12 | 225 | 3.2 | 6.4 | 0.00 | 0.00 | 0.00 | 74 | 1015.1 |
| 20260509064206 | 12 | 248 | 1.6 | 3.2 | 0.00 | 0.00 | 0.00 | 75 | 1014.8 |
| 20260509063656 | 12 | 248 | 0.0 | 0.0 | 0.00 | 0.00 | 0.00 | 75 | 1014.9 |
| 20260509063146 | 12 | 248 | 0.0 | 0.0 | 0.00 | 0.00 | 0.00 | 74 | 1015.0 |
| 20260509062637 | 12 | 248 | 0.0 | 0.0 | 0.00 | 0.00 | 0.00 | 71 | 1015.1 |
| 20260509062127 | 12 | 248 | 0.0 | 0.0 | 0.00 | 0.00 | 0.00 | 70 | 1014.9 |
| 20260509061105 | 13 | 248 | 0.0 | 3.2 | 0.00 | 0.00 | 0.00 | 67 | 1014.9 |
| 20260509060556 | 12 | 248 | 0.0 | 3.2 | 0.00 | 0.00 | 0.00 | 65 | 1014.6 |
| 20260509060046 | 12 | 248 | 0.0 | 3.2 | 0.00 | 0.00 | 0.00 | 69 | 1014.8 |
| 20260509055535 | 12 | 248 | 1.6 | 6.4 | 0.00 | 0.00 | 0.00 | 72 | 1014.8 |
| 20260509055025 | 11 | 248 | 3.2 | 6.4 | 0.00 | 0.00 | 0.00 | 75 | 1014.6 |
| 20260509054515 | 12 | 248 | 0.0 | 3.2 | 0.00 | 0.00 | 0.00 | 76 | 1014.7 |
| 20260509054005 | 12 | 248 | 1.6 | 3.2 | 0.00 | 0.00 | 0.00 | 76 | 1014.7 |
| 20260509053455 | 12 | 248 | 0.0 | 3.2 | 0.00 | 0.00 | 0.00 | 76 | 1014.6 |
| 20260509052945 | 12 | 248 | 0.0 | 3.2 | 0.00 | 0.00 | 0.00 | 77 | 1014.9 |
| 20260509052435 | 12 | 248 | 0.0 | 3.2 | 0.00 | 0.00 | 0.00 | 76 | 1014.8 |
| 20260509051924 | 12 | 248 | 0.0 | 3.2 | 0.00 | 0.00 | 0.00 | 77 | 1014.8 |
| 20260509050904 | 11 | 248 | 0.0 | 0.0 | 0.00 | 0.00 | 0.00 | 78 | 1014.9 |
| 20260509050351 | 12 | 248 | 3.2 | 0.0 | 0.00 | 0.00 | 0.00 | 79 | 1014.8 |
| 20260509050157 | 11 | 248 | 3.2 | 0.0 | 0.00 | 0.00 | 0.00 | 79 | 1014.8 |
| 20260509045525 | 12 | 248 | 3.2 | 3.2 | 0.00 | 0.03 | 0.00 | 78 | 1014.8 |
| 20260509045015 | 12 | 248 | 0.0 | 0.0 | 0.00 | 0.03 | 0.00 | 76 | 1014.7 |
| 20260509043955 | 12 | 248 | 0.0 | 3.2 | 0.00 | 0.03 | 0.00 | 75 | 1014.7 |
| 20260509043444 | 12 | 248 | 0.0 | 3.2 | 0.00 | 0.03 | 0.00 | 76 | 1014.7 |
| 20260509041914 | 11 | 248 | 0.0 | 0.0 | 0.00 | 0.03 | 0.00 | 75 | 1015.1 |
| 20260509041404 | 11 | 248 | 0.0 | 0.0 | 0.00 | 0.03 | 0.00 | 75 | 1015.1 |
| 20260509040854 | 12 | 248 | 0.0 | 0.0 | 0.00 | 0.03 | 0.00 | 74 | 1015.0 |
| 20260509040343 | 12 | 248 | 0.0 | 0.0 | 0.00 | 0.03 | 0.00 | 73 | 1014.9 |
| 20260509035833 | 12 | 248 | 0.0 | 0.0 | 0.00 | 0.03 | 0.00 | 72 | 1014.7 |
| 20260509035324 | 12 | 248 | 0.0 | 3.2 | 0.00 | 0.03 | 0.00 | 72 | 1014.7 |
| 20260509034814 | 12 | 248 | 0.0 | 3.2 | 0.00 | 0.03 | 0.00 | 72 | 1014.8 |
| 20260509034304 | 12 | 248 | 0.0 | 0.0 | 0.00 | 0.03 | 0.00 | 72 | 1014.7 |
| 20260509033754 | 13 | 248 | 0.0 | 0.0 | 0.00 | 0.03 | 0.00 | 71 | 1015.0 |
| 20260509033243 | 13 | 248 | 0.0 | 0.0 | 0.00 | 0.03 | 0.00 | 69 | 1015.0 |
| 20260509032732 | 13 | 248 | 0.0 | 0.0 | 0.00 | 0.03 | 0.00 | 69 | 1015.3 |
| 20260509032223 | 13 | 248 | 0.0 | 0.0 | 0.00 | 0.03 | 0.00 | 68 | 1015.1 |
| 20260509031714 | 13 | 248 | 0.0 | 0.0 | 0.00 | 0.03 | 0.00 | 69 | 1015.0 |
| 20260509031203 | 13 | 248 | 0.0 | 0.0 | 0.00 | 0.03 | 0.00 | 70 | 1015.1 |
| 20260509025632 | 12 | 248 | 0.0 | 0.0 | 0.00 | 0.03 | 0.03 | 71 | 1014.7 |
| 20260509024102 | 13 | 248 | 0.0 | 0.0 | 0.00 | 0.03 | 0.03 | 69 | 1014.4 |
| 20260509023551 | 13 | 248 | 0.0 | 0.0 | 0.00 | 0.03 | 0.03 | 68 | 1014.2 |
| 20260509023042 | 13 | 248 | 0.0 | 0.0 | 0.00 | 0.03 | 0.03 | 67 | 1014.3 |
| 20260509022021 | 13 | 248 | 0.0 | 0.0 | 0.00 | 0.03 | 0.03 | 66 | 1014.3 |
| 20260509021511 | 13 | 248 | 0.0 | 0.0 | 0.00 | 0.03 | 0.03 | 66 | 1014.3 |
| 20260509021000 | 13 | 248 | 0.0 | 3.2 | 0.00 | 0.03 | 0.03 | 66 | 1014.1 |
| 20260509015941 | 13 | 248 | 0.0 | 3.2 | 0.00 | 0.03 | 0.03 | 63 | 1014.0 |
| 20260509015431 | 14 | 248 | 1.6 | 6.4 | 0.00 | 0.03 | 0.03 | 63 | 1014.4 |
| 20260509014921 | 13 | 248 | 1.6 | 6.4 | 0.00 | 0.03 | 0.03 | 63 | 1014.2 |
| 20260509014411 | 13 | 248 | 0.0 | 3.2 | 0.00 | 0.03 | 0.03 | 63 | 1014.2 |
| 20260509013901 | 14 | 248 | 0.0 | 6.4 | 0.00 | 0.03 | 0.03 | 63 | 1014.0 |
| 20260509013351 | 14 | 248 | 1.6 | 6.4 | 0.00 | 0.03 | 0.03 | 64 | 1014.3 |
| 20260509012841 | 14 | 248 | 1.6 | 3.2 | 0.00 | 0.03 | 0.03 | 63 | 1014.2 |
| 20260509012330 | 14 | 248 | 1.6 | 3.2 | 0.00 | 0.03 | 0.03 | 64 | 1013.8 |
| 20260509011819 | 14 | 248 | 0.0 | 0.0 | 0.00 | 0.03 | 0.03 | 65 | 1014.0 |
| 20260509011310 | 14 | 248 | 0.0 | 3.2 | 0.00 | 0.03 | 0.03 | 66 | 1013.8 |
| 20260509010249 | 14 | 248 | 0.0 | 0.0 | 0.00 | 0.03 | 0.03 | 66 | 1013.4 |
| 20260509005740 | 14 | 248 | 0.0 | 3.2 | 0.00 | 0.03 | 0.03 | 66 | 1013.4 |
| 20260509005230 | 14 | 248 | 0.0 | 3.2 | 0.00 | 0.03 | 0.03 | 66 | 1013.5 |
| 20260509004720 | 14 | 248 | 0.0 | 3.2 | 0.00 | 0.03 | 0.03 | 66 | 1013.2 |
| 20260509004209 | 13 | 248 | 0.0 | 0.0 | 0.00 | 0.03 | 0.03 | 66 | 1013.2 |
| 20260509003659 | 14 | 248 | 0.0 | 0.0 | 0.00 | 0.03 | 0.03 | 65 | 1013.1 |
| 20260509003149 | 13 | 248 | 0.0 | 0.0 | 0.00 | 0.03 | 0.03 | 65 | 1012.9 |
| 20260509002129 | 14 | 248 | 0.0 | 0.0 | 0.00 | 0.03 | 0.03 | 63 | 1012.6 |
| 20260509000603 | 14 | 248 | 0.0 | 3.2 | 0.00 | 0.03 | 0.03 | 63 | 1012.7 |
| 20260509000049 | 14 | 248 | 0.0 | 3.2 | 0.00 | 0.03 | 0.03 | 60 | 1012.6 |
| 20260508235538 | 14 | 248 | 0.0 | 0.0 | 0.00 | 0.03 | 0.03 | 61 | 1012.5 |
| 20260508235028 | 14 | 248 | 0.0 | 0.0 | 0.00 | 0.03 | 0.03 | 61 | 1012.7 |
| 20260508234008 | 14 | 248 | 0.0 | 0.0 | 0.00 | 0.03 | 0.03 | 61 | 1012.4 |
| 20260508233459 | 14 | 248 | 0.0 | 0.0 | 0.00 | 0.03 | 0.03 | 61 | 1012.4 |
| 20260508232948 | 14 | 248 | 0.0 | 0.0 | 0.00 | 0.03 | 0.03 | 62 | 1012.3 |
| 20260508231928 | 14 | 248 | 0.0 | 0.0 | 0.00 | 0.03 | 0.03 | 61 | 1012.4 |
| 20260508231417 | 14 | 248 | 0.0 | 0.0 | 0.00 | 0.03 | 0.03 | 61 | 1012.3 |
| 20260508230357 | 14 | 248 | 0.0 | 0.0 | 0.00 | 0.03 | 0.03 | 61 | 1012.2 |
| 20260508225847 | 14 | 248 | 0.0 | 0.0 | 0.00 | 0.03 | 0.03 | 62 | 1012.3 |
| 20260508225336 | 14 | 248 | 0.0 | 0.0 | 0.00 | 0.03 | 0.03 | 63 | 1012.0 |
| 20260508224316 | 14 | 248 | 0.0 | 0.0 | 0.00 | 0.03 | 0.03 | 60 | 1011.8 |
| 20260508223806 | 15 | 248 | 0.0 | 0.0 | 0.00 | 0.03 | 0.03 | 60 | 1011.6 |
| 20260508222747 | 15 | 248 | 0.0 | 0.0 | 0.00 | 0.03 | 0.03 | 58 | 1011.5 |
| 20260508222236 | 15 | 248 | 0.0 | 0.0 | 0.00 | 0.03 | 0.03 | 57 | 1011.5 |
| 20260508221215 | 15 | 248 | 0.0 | 0.0 | 0.00 | 0.03 | 0.03 | 56 | 1011.4 |
| 20260508220706 | 15 | 248 | 0.0 | 0.0 | 0.00 | 0.03 | 0.03 | 55 | 1011.4 |
| 20260508220156 | 15 | 248 | 0.0 | 3.2 | 0.00 | 0.03 | 0.03 | 54 | 1011.1 |
| 20260508215645 | 15 | 248 | 0.0 | 3.2 | 0.00 | 0.03 | 0.03 | 53 | 1011.2 |
| 20260508215135 | 16 | 248 | 1.6 | 6.4 | 0.00 | 0.03 | 0.03 | 52 | 1011.0 |
| 20260508214115 | 16 | 248 | 3.2 | 6.4 | 0.00 | 0.03 | 0.03 | 52 | 1011.4 |
| 20260508213605 | 16 | 248 | 1.6 | 6.4 | 0.00 | 0.03 | 0.03 | 51 | 1011.4 |
| 20260508213055 | 16 | 248 | 3.2 | 6.4 | 0.00 | 0.03 | 0.03 | 50 | 1011.5 |
| 20260508212545 | 16 | 270 | 3.2 | 6.4 | 0.00 | 0.03 | 0.03 | 49 | 1011.8 |
| 20260508212035 | 16 | 248 | 3.2 | 6.4 | 0.00 | 0.03 | 0.03 | 50 | 1011.5 |
| 20260508211525 | 16 | 248 | 4.8 | 6.4 | 0.00 | 0.03 | 0.03 | 49 | 1011.6 |
| 20260508210504 | 17 | 248 | 1.6 | 9.7 | 0.00 | 0.03 | 0.03 | 46 | 1011.5 |
| 20260508205955 | 17 | 293 | 3.2 | 9.7 | 0.00 | 0.03 | 0.03 | 45 | 1011.3 |
| 20260508205444 | 17 | 248 | 3.2 | 11.3 | 0.00 | 0.03 | 0.03 | 45 | 1011.3 |
| 20260508204934 | 18 | 248 | 3.2 | 11.3 | 0.00 | 0.03 | 0.03 | 45 | 1011.4 |
| 20260508204424 | 18 | 270 | 4.8 | 9.7 | 0.00 | 0.03 | 0.03 | 45 | 1011.4 |
| 20260508203403 | 18 | 248 | 3.2 | 11.3 | 0.00 | 0.03 | 0.03 | 43 | 1011.3 |
| 20260508202854 | 18 | 270 | 3.2 | 11.3 | 0.00 | 0.03 | 0.03 | 43 | 1011.2 |
| 20260508202343 | 19 | 270 | 3.2 | 11.3 | 0.00 | 0.03 | 0.03 | 42 | 1011.3 |
| 20260508201833 | 18 | 248 | 3.2 | 11.3 | 0.00 | 0.03 | 0.03 | 42 | 1011.4 |
| 20260508201323 | 19 | 248 | 3.2 | 6.4 | 0.00 | 0.03 | 0.03 | 40 | 1011.4 |
| 20260508200813 | 19 | 225 | 1.6 | 6.4 | 0.00 | 0.03 | 0.03 | 41 | 1011.3 |
| 20260508200303 | 18 | 225 | 3.2 | 6.4 | 0.00 | 0.03 | 0.03 | 39 | 1011.4 |
| 20260508195243 | 19 | 248 | 1.6 | 9.7 | 0.00 | 0.03 | 0.03 | 39 | 1011.0 |
| 20260508194222 | 19 | 203 | 3.2 | 12.9 | 0.00 | 0.03 | 0.03 | 40 | 1011.4 |
| 20260508193712 | 19 | 225 | 3.2 | 12.9 | 0.00 | 0.03 | 0.03 | 38 | 1011.3 |
| 20260508193202 | 19 | 180 | 6.4 | 12.9 | 0.00 | 0.03 | 0.03 | 38 | 1011.5 |
| 20260508192652 | 20 | 248 | 3.2 | 11.3 | 0.00 | 0.03 | 0.03 | 38 | 1011.5 |
| 20260508191632 | 19 | 225 | 1.6 | 9.7 | 0.00 | 0.03 | 0.03 | 40 | 1011.8 |
| 20260508190612 | 20 | 225 | 4.8 | 11.3 | 0.00 | 0.03 | 0.03 | 37 | 1011.8 |
| 20260508185042 | 20 | 225 | 3.2 | 12.9 | 0.00 | 0.03 | 0.03 | 38 | 1011.6 |
| 20260508184532 | 19 | 225 | 6.4 | 12.9 | 0.00 | 0.03 | 0.03 | 38 | 1011.8 |
| 20260508184022 | 20 | 225 | 3.2 | 14.5 | 0.00 | 0.03 | 0.03 | 39 | 1011.8 |
| 20260508183511 | 19 | 248 | 4.8 | 14.5 | 0.00 | 0.03 | 0.03 | 38 | 1012.0 |
| 20260508183001 | 20 | 225 | 3.2 | 11.3 | 0.00 | 0.03 | 0.03 | 39 | 1011.8 |
| 20260508182452 | 20 | 180 | 3.2 | 12.9 | 0.00 | 0.03 | 0.03 | 39 | 1011.7 |
| 20260508181940 | 20 | 248 | 1.6 | 12.9 | 0.00 | 0.03 | 0.03 | 40 | 1011.9 |
| 20260508181431 | 20 | 293 | 4.8 | 12.9 | 0.00 | 0.03 | 0.03 | 39 | 1011.9 |
| 20260508180921 | 19 | 225 | 3.2 | 12.9 | 0.00 | 0.03 | 0.03 | 40 | 1011.5 |
| 20260508180410 | 19 | 270 | 6.4 | 12.9 | 0.00 | 0.03 | 0.03 | 39 | 1011.8 |
| 20260508175900 | 19 | 248 | 4.8 | 12.9 | 0.00 | 0.03 | 0.03 | 39 | 1011.7 |
| 20260508174840 | 19 | 180 | 4.8 | 17.7 | 0.00 | 0.03 | 0.03 | 40 | 1012.0 |
| 20260508174330 | 19 | 203 | 3.2 | 12.9 | 0.00 | 0.03 | 0.03 | 39 | 1012.0 |
| 20260508173310 | 19 | 203 | 6.4 | 17.7 | 0.00 | 0.03 | 0.03 | 39 | 1012.3 |
| 20260508172759 | 19 | 248 | 6.4 | 20.9 | 0.00 | 0.03 | 0.03 | 38 | 1012.4 |
| 20260508172250 | 18 | 180 | 12.9 | 20.9 | 0.00 | 0.03 | 0.03 | 39 | 1012.5 |
| 20260508171740 | 19 | 225 | 6.4 | 20.9 | 0.00 | 0.03 | 0.03 | 39 | 1012.6 |
| 20260508171229 | 19 | 225 | 6.4 | 17.7 | 0.00 | 0.03 | 0.03 | 38 | 1012.8 |
| 20260508170209 | 19 | 270 | 6.4 | 17.7 | 0.00 | 0.03 | 0.03 | 36 | 1013.1 |
| 20260508165659 | 19 | 225 | 8.0 | 17.7 | 0.00 | 0.03 | 0.03 | 37 | 1013.0 |
| 20260508164639 | 18 | 225 | 6.4 | 14.5 | 0.00 | 0.03 | 0.03 | 34 | 1013.0 |
| 20260508163619 | 18 | 248 | 11.3 | 20.9 | 0.00 | 0.03 | 0.03 | 33 | 1013.4 |
| 20260508162559 | 18 | 248 | 6.4 | 20.9 | 0.00 | 0.03 | 0.03 | 34 | 1013.3 |
| 20260508162048 | 18 | 225 | 8.0 | 24.1 | 0.00 | 0.03 | 0.03 | 37 | 1013.3 |
| 20260508161029 | 18 | 270 | 4.8 | 14.5 | 0.00 | 0.03 | 0.03 | 37 | 1013.6 |
| 20260508160519 | 19 | 248 | 6.4 | 20.9 | 0.00 | 0.03 | 0.03 | 40 | 1013.7 |
| 20260508155457 | 18 | 203 | 6.4 | 20.9 | 0.00 | 0.03 | 0.03 | 42 | 1014.0 |
| 20260508154948 | 18 | 203 | 8.0 | 17.7 | 0.00 | 0.03 | 0.03 | 39 | 1014.0 |
| 20260508154438 | 18 | 225 | 6.4 | 17.7 | 0.00 | 0.03 | 0.03 | 41 | 1014.0 |
| 20260508153927 | 18 | 225 | 6.4 | 14.5 | 0.00 | 0.03 | 0.03 | 43 | 1014.2 |
| 20260508153417 | 18 | 225 | 6.4 | 17.7 | 0.00 | 0.03 | 0.03 | 42 | 1014.3 |
| 20260508152356 | 18 | 203 | 8.0 | 12.9 | 0.00 | 0.03 | 0.03 | 41 | 1014.2 |
| 20260508150827 | 18 | 225 | 6.4 | 17.7 | 0.00 | 0.03 | 0.03 | 41 | 1014.3 |
| 20260508150317 | 17 | 180 | 8.0 | 17.7 | 0.00 | 0.03 | 0.03 | 42 | 1014.7 |
| 20260508145806 | 18 | 248 | 6.4 | 17.7 | 0.00 | 0.03 | 0.03 | 42 | 1014.5 |
| 20260508145256 | 18 | 248 | 6.4 | 17.7 | 0.00 | 0.03 | 0.03 | 43 | 1014.6 |
| 20260508144746 | 17 | 248 | 8.0 | 17.7 | 0.00 | 0.03 | 0.03 | 46 | 1014.6 |
| 20260508144235 | 17 | 248 | 3.2 | 17.7 | 0.00 | 0.03 | 0.03 | 46 | 1014.8 |
| 20260508143727 | 17 | 270 | 6.4 | 17.7 | 0.00 | 0.03 | 0.03 | 51 | 1014.6 |
| 20260508143215 | 17 | 248 | 6.4 | 14.5 | 0.00 | 0.03 | 0.03 | 47 | 1014.6 |
| 20260508142706 | 17 | 248 | 6.4 | 14.5 | 0.00 | 0.03 | 0.03 | 53 | 1014.6 |
| 20260508142157 | 17 | 203 | 3.2 | 11.3 | 0.00 | 0.03 | 0.03 | 56 | 1014.8 |
| 20260508141646 | 17 | 203 | 4.8 | 11.3 | 0.00 | 0.03 | 0.03 | 54 | 1014.9 |
| 20260508141136 | 17 | 203 | 6.4 | 11.3 | 0.00 | 0.03 | 0.03 | 57 | 1014.8 |
| 20260508140625 | 17 | 248 | 3.2 | 11.3 | 0.00 | 0.03 | 0.03 | 58 | 1014.6 |
| 20260508140116 | 17 | 225 | 4.8 | 11.3 | 0.00 | 0.03 | 0.03 | 57 | 1014.8 |
| 20260508135055 | 17 | 248 | 6.4 | 11.3 | 0.00 | 0.03 | 0.03 | 59 | 1014.8 |
| 20260508134545 | 17 | 225 | 3.2 | 11.3 | 0.00 | 0.03 | 0.03 | 63 | 1014.8 |
| 20260508134035 | 16 | 248 | 6.4 | 11.3 | 0.00 | 0.03 | 0.03 | 64 | 1014.8 |
| 20260508133524 | 16 | 225 | 4.8 | 12.9 | 0.00 | 0.03 | 0.03 | 64 | 1014.9 |
| 20260508133026 | 16 | 203 | 4.8 | 12.9 | 0.00 | 0.03 | 0.03 | 65 | 1014.9 |
| 20260508132505 | 16 | 225 | 3.2 | 11.3 | 0.00 | 0.03 | 0.03 | 65 | 1014.8 |
| 20260508131954 | 16 | 180 | 3.2 | 11.3 | 0.00 | 0.03 | 0.03 | 68 | 1015.1 |
| 20260508131444 | 16 | 270 | 6.4 | 11.3 | 0.00 | 0.03 | 0.03 | 68 | 1014.9 |
| 20260508130423 | 15 | 225 | 6.4 | 11.3 | 0.00 | 0.03 | 0.03 | 69 | 1014.9 |
| 20260508125914 | 15 | 248 | 3.2 | 9.7 | 0.00 | 0.03 | 0.03 | 71 | 1014.7 |
| 20260508125404 | 15 | 225 | 4.8 | 11.3 | 0.00 | 0.03 | 0.03 | 72 | 1014.7 |
| 20260508124343 | 15 | 248 | 4.8 | 11.3 | 0.00 | 0.03 | 0.03 | 73 | 1014.7 |
| 20260508123833 | 15 | 225 | 6.4 | 11.3 | 0.00 | 0.03 | 0.03 | 74 | 1014.7 |
| 20260508123323 | 15 | 248 | 4.8 | 9.7 | 0.00 | 0.03 | 0.03 | 75 | 1014.6 |
| 20260508122815 | 15 | 248 | 3.2 | 14.5 | 0.00 | 0.03 | 0.03 | 77 | 1014.7 |
| 20260508122306 | 15 | 270 | 3.2 | 14.5 | 0.00 | 0.03 | 0.03 | 78 | 1014.8 |
| 20260508121753 | 14 | 225 | 3.2 | 9.7 | 0.00 | 0.03 | 0.03 | 78 | 1014.5 |
| 20260508121243 | 14 | 248 | 3.2 | 12.9 | 0.00 | 0.03 | 0.03 | 80 | 1014.6 |
| 20260508120733 | 13 | 225 | 4.8 | 12.9 | 0.00 | 0.03 | 0.03 | 80 | 1014.5 |
| 20260508120223 | 13 | 225 | 3.2 | 11.3 | 0.00 | 0.03 | 0.03 | 81 | 1014.6 |
| 20260508115712 | 13 | 248 | 3.2 | 12.9 | 0.00 | 0.03 | 0.03 | 81 | 1014.4 |
| 20260508115203 | 13 | 248 | 6.4 | 12.9 | 0.00 | 0.03 | 0.03 | 82 | 1014.3 |
| 20260508114652 | 13 | 270 | 6.4 | 12.9 | 0.03 | 0.03 | 0.03 | 82 | 1014.4 |
| 20260508114142 | 13 | 248 | 3.2 | 12.9 | 0.03 | 0.03 | 0.03 | 83 | 1014.1 |
| 20260508113632 | 13 | 248 | 3.2 | 12.9 | 0.03 | 0.03 | 0.03 | 84 | 1014.2 |